PAL455 RPMR-RPLL

Flight info

Callsign PAL455
Flight time 1h 43m
Altitude 40000
Route LATIA4R LATIA W6 LUMVI B473 LAIYA LAIYA5R
Aircraft A359/H-SDE2E3GHIJ3J4J5LM1ORWXY/LB1D1

Departure

Time 2026-04-20 16:07
Airport General Santos International Airport (RPMR)

Arrival

Time 2026-04-20 17:50
Airport Ninoy Aquino International Airport (RPLL)
Time Latitude Longitude Altitude Speed Heading
2026-04-20 15:53 6.05559 125.09957 523 ft 0 kts 90°
2026-04-20 15:57 6.05559 125.09947 523 ft 2 kts 91°
2026-04-20 15:57 6.05560 125.09930 521 ft 2 kts 91°
2026-04-20 15:57 6.05556 125.09915 520 ft 2 kts 53°
2026-04-20 15:58 6.05545 125.09902 518 ft 2 kts 15°
2026-04-20 15:58 6.05528 125.09902 519 ft 2 kts 348°
2026-04-20 15:58 6.05520 125.09904 518 ft 0 kts 348°
2026-04-20 16:01 6.05522 125.09904 520 ft 1 kts 348°
2026-04-20 16:01 6.05543 125.09901 520 ft 7 kts 353°
2026-04-20 16:01 6.05586 125.09896 520 ft 11 kts 353°
2026-04-20 16:02 6.05669 125.09886 523 ft 13 kts 353°
2026-04-20 16:02 6.05805 125.09867 520 ft 14 kts 339°
2026-04-20 16:02 6.05833 125.09786 520 ft 14 kts 264°
2026-04-20 16:02 6.05819 125.09682 520 ft 16 kts 262°
2026-04-20 16:03 6.05824 125.09632 520 ft 5 kts 303°
2026-04-20 16:03 6.05887 125.09609 520 ft 17 kts 354°
2026-04-20 16:03 6.06047 125.09590 521 ft 28 kts 353°
2026-04-20 16:03 6.06330 125.09553 522 ft 32 kts 350°
2026-04-20 16:04 6.06551 125.09527 522 ft 32 kts 355°
2026-04-20 16:04 6.06699 125.09510 522 ft 33 kts 353°
2026-04-20 16:04 6.06933 125.09480 519 ft 34 kts 353°
2026-04-20 16:04 6.07095 125.09467 519 ft 6 kts 15°
2026-04-20 16:05 6.07128 125.09499 519 ft 7 kts 62°
2026-04-20 16:05 6.07140 125.09556 519 ft 10 kts 82°
2026-04-20 16:05 6.07172 125.09614 520 ft 8 kts 22°
2026-04-20 16:05 6.07257 125.09576 519 ft 8 kts 285°
2026-04-20 16:06 6.07257 125.09514 519 ft 20 kts 263°
2026-04-20 16:06 6.07224 125.09457 518 ft 8 kts 205°
2026-04-20 16:06 6.07139 125.09454 519 ft 15 kts 173°
2026-04-20 16:06 6.06873 125.09488 519 ft 73 kts 173°
2026-04-20 16:07 6.06132 125.09577 521 ft 140 kts 173°
2026-04-20 16:07 6.04564 125.09771 871 ft 185 kts 173°
2026-04-20 16:07 6.03736 125.09880 1510 ft 176 kts 172°
2026-04-20 16:07 6.02555 125.10022 2447 ft 172 kts 172°
2026-04-20 16:08 6.01292 125.10171 2823 ft 194 kts 172°
2026-04-20 16:08 5.99878 125.10342 3049 ft 215 kts 172°
2026-04-20 16:08 5.98324 125.10534 3243 ft 237 kts 172°
2026-04-20 16:08 5.96679 125.10971 3516 ft 255 kts 152°
2026-04-20 16:09 5.95397 125.12218 3881 ft 264 kts 116°
2026-04-20 16:09 5.95021 125.13994 4470 ft 264 kts 83°
2026-04-20 16:09 5.95671 125.15688 5072 ft 264 kts 51°
2026-04-20 16:09 5.97121 125.16756 5627 ft 267 kts 20°
2026-04-20 16:10 5.98964 125.17009 6227 ft 270 kts
2026-04-20 16:10 6.00851 125.17014 6809 ft 273 kts
2026-04-20 16:10 6.02764 125.17045 7388 ft 276 kts
2026-04-20 16:10 6.04702 125.17122 7958 ft 280 kts
2026-04-20 16:11 6.06657 125.17245 8529 ft 284 kts
2026-04-20 16:11 6.08641 125.17398 9089 ft 288 kts
2026-04-20 16:11 6.10655 125.17569 9645 ft 292 kts
2026-04-20 16:11 6.12690 125.17751 10156 ft 298 kts
2026-04-20 16:12 6.14808 125.17951 10399 ft 312 kts
2026-04-20 16:12 6.16983 125.18418 10586 ft 328 kts 16°
2026-04-20 16:12 6.19158 125.19187 10776 ft 342 kts 19°
2026-04-20 16:12 6.21418 125.20055 11053 ft 352 kts 20°
2026-04-20 16:13 6.23715 125.20947 11460 ft 356 kts 20°
2026-04-20 16:13 6.26037 125.21844 11888 ft 360 kts 20°
2026-04-20 16:13 6.28392 125.22744 12301 ft 363 kts 20°
2026-04-20 16:13 6.30766 125.23647 12744 ft 366 kts 20°
2026-04-20 16:14 6.33158 125.24555 13170 ft 369 kts 19°
2026-04-20 16:14 6.35575 125.25470 13599 ft 372 kts 19°
2026-04-20 16:14 6.38010 125.26390 13965 ft 376 kts 19°
2026-04-20 16:14 6.40448 125.27252 14327 ft 378 kts 14°
2026-04-20 16:15 6.43028 125.27765 14717 ft 378 kts
2026-04-20 16:15 6.45655 125.27804 15093 ft 378 kts 352°
2026-04-20 16:15 6.48184 125.27108 15463 ft 378 kts 334°
2026-04-20 16:15 6.50390 125.25694 15848 ft 377 kts 320°
2026-04-20 16:16 6.52421 125.24022 16220 ft 379 kts 318°
2026-04-20 16:16 6.54438 125.22302 16579 ft 382 kts 318°
2026-04-20 16:16 6.56475 125.20570 16957 ft 384 kts 318°
2026-04-20 16:16 6.58526 125.18839 17314 ft 387 kts 318°
2026-04-20 16:17 6.60596 125.17100 17671 ft 389 kts 319°
2026-04-20 16:17 6.62653 125.15377 18032 ft 391 kts 319°
2026-04-20 16:17 6.64751 125.13623 18370 ft 394 kts 319°
2026-04-20 16:17 6.66867 125.11855 18664 ft 396 kts 319°
2026-04-20 16:18 6.68992 125.10081 18974 ft 398 kts 319°
2026-04-20 16:18 6.71127 125.08297 19264 ft 400 kts 319°
2026-04-20 16:18 6.73274 125.06505 19537 ft 402 kts 319°
2026-04-20 16:18 6.75432 125.04703 19856 ft 404 kts 319°
2026-04-20 16:19 6.77600 125.02892 20166 ft 406 kts 319°
2026-04-20 16:19 6.79750 125.01096 20464 ft 408 kts 319°
2026-04-20 16:19 6.81936 124.99271 20747 ft 410 kts 319°
2026-04-20 16:19 6.84136 124.97432 21036 ft 412 kts 319°
2026-04-20 16:20 6.86349 124.95583 21325 ft 414 kts 319°
2026-04-20 16:20 6.88596 124.93756 21598 ft 417 kts 323°
2026-04-20 16:20 6.91097 124.92269 21871 ft 420 kts 335°
2026-04-20 16:20 6.93855 124.91280 22169 ft 422 kts 343°
2026-04-20 16:21 6.96706 124.90554 22449 ft 424 kts 347°
2026-04-20 16:21 6.99606 124.89964 22726 ft 426 kts 349°
2026-04-20 16:21 7.02489 124.89437 22991 ft 428 kts 349°
2026-04-20 16:21 7.05423 124.88913 23267 ft 430 kts 349°
2026-04-20 16:22 7.08378 124.88371 23528 ft 432 kts 349°
2026-04-20 16:22 7.11333 124.87806 23747 ft 434 kts 349°
2026-04-20 16:22 7.14299 124.87216 23965 ft 435 kts 348°
2026-04-20 16:22 7.17273 124.86611 24197 ft 437 kts 348°
2026-04-20 16:23 7.20259 124.85995 24431 ft 439 kts 348°
2026-04-20 16:23 7.23209 124.85383 24647 ft 440 kts 348°
2026-04-20 16:23 7.26216 124.84759 24873 ft 442 kts 348°
2026-04-20 16:23 7.29235 124.84137 25094 ft 443 kts 348°
2026-04-20 16:24 7.32263 124.83512 25327 ft 445 kts 348°
2026-04-20 16:24 7.35301 124.82883 25559 ft 447 kts 348°
2026-04-20 16:24 7.38347 124.82252 25792 ft 448 kts 348°
2026-04-20 16:24 7.41409 124.81619 26030 ft 450 kts 348°
2026-04-20 16:25 7.44478 124.80985 26259 ft 452 kts 348°
2026-04-20 16:25 7.47566 124.80348 26500 ft 453 kts 349°
2026-04-20 16:25 7.50619 124.79718 26739 ft 455 kts 349°
2026-04-20 16:25 7.53722 124.79077 26980 ft 457 kts 349°
2026-04-20 16:26 7.56851 124.78431 27216 ft 459 kts 349°
2026-04-20 16:26 7.59978 124.77786 27475 ft 461 kts 349°
2026-04-20 16:26 7.63129 124.77135 27719 ft 463 kts 349°
2026-04-20 16:26 7.66291 124.76482 27976 ft 464 kts 349°
2026-04-20 16:27 7.69464 124.75827 28230 ft 466 kts 349°
2026-04-20 16:27 7.72644 124.75170 28491 ft 468 kts 349°
2026-04-20 16:27 7.75842 124.74509 28739 ft 470 kts 349°
2026-04-20 16:27 7.79011 124.73854 28986 ft 472 kts 349°
2026-04-20 16:28 7.82239 124.73187 29245 ft 474 kts 349°
2026-04-20 16:28 7.85478 124.72517 29500 ft 476 kts 349°
2026-04-20 16:28 7.88728 124.71845 29758 ft 478 kts 349°
2026-04-20 16:28 7.91995 124.71169 30014 ft 480 kts 349°
2026-04-20 16:29 7.95277 124.70491 30251 ft 482 kts 349°
2026-04-20 16:29 7.98563 124.69814 30495 ft 484 kts 349°
2026-04-20 16:29 8.01870 124.69133 30748 ft 485 kts 349°
2026-04-20 16:29 8.05135 124.68458 31002 ft 487 kts 349°
2026-04-20 16:30 8.08460 124.67770 31265 ft 488 kts 349°
2026-04-20 16:30 8.11784 124.67081 31524 ft 490 kts 349°
2026-04-20 16:30 8.15129 124.66388 31773 ft 491 kts 349°
2026-04-20 16:30 8.18482 124.65694 32012 ft 493 kts 349°
2026-04-20 16:31 8.21845 124.64999 32266 ft 494 kts 348°
2026-04-20 16:31 8.25220 124.64300 32510 ft 496 kts 348°
2026-04-20 16:31 8.28607 124.63600 32730 ft 498 kts 348°
2026-04-20 16:31 8.32003 124.62897 32958 ft 499 kts 348°
2026-04-20 16:32 8.35410 124.62192 33195 ft 501 kts 348°
2026-04-20 16:32 8.38814 124.61445 33415 ft 502 kts 345°
2026-04-20 16:32 8.42139 124.60323 33630 ft 504 kts 337°
2026-04-20 16:32 8.45257 124.58803 33858 ft 505 kts 332°
2026-04-20 16:33 8.48353 124.57124 34066 ft 506 kts 331°
2026-04-20 16:33 8.51422 124.55375 34237 ft 508 kts 330°
2026-04-20 16:33 8.54492 124.53580 34449 ft 509 kts 329°
2026-04-20 16:33 8.57546 124.51779 34758 ft 508 kts 329°
2026-04-20 16:34 8.60592 124.49986 35083 ft 506 kts 329°
2026-04-20 16:34 8.63631 124.48207 35391 ft 506 kts 329°
2026-04-20 16:34 8.66679 124.46434 35702 ft 505 kts 330°
2026-04-20 16:34 8.69723 124.44670 36010 ft 504 kts 330°
2026-04-20 16:35 8.72770 124.42910 36314 ft 503 kts 330°
2026-04-20 16:35 8.75765 124.41181 36638 ft 503 kts 330°
2026-04-20 16:35 8.78799 124.39430 36975 ft 502 kts 330°
2026-04-20 16:35 8.81827 124.37682 37312 ft 501 kts 330°
2026-04-20 16:36 8.84852 124.35935 37625 ft 500 kts 330°
2026-04-20 16:36 8.87866 124.34194 37952 ft 499 kts 330°
2026-04-20 16:36 8.90887 124.32448 38259 ft 499 kts 330°
2026-04-20 16:36 8.93896 124.30708 38558 ft 499 kts 330°
2026-04-20 16:37 8.96905 124.28968 38822 ft 498 kts 330°
2026-04-20 16:37 8.99914 124.27228 39076 ft 498 kts 330°
2026-04-20 16:37 9.02878 124.25513 39324 ft 497 kts 330°
2026-04-20 16:37 9.05876 124.23783 39581 ft 496 kts 329°
2026-04-20 16:38 9.08872 124.22047 39826 ft 496 kts 329°
2026-04-20 16:38 9.11873 124.20305 39907 ft 497 kts 329°
2026-04-20 16:38 9.17876 124.16814 39923 ft 499 kts 329°
2026-04-20 16:39 9.23857 124.13339 39922 ft 499 kts 329°
2026-04-20 16:39 9.29875 124.09845 39920 ft 498 kts 329°
2026-04-20 16:40 9.35889 124.06352 39923 ft 498 kts 329°
2026-04-20 16:40 9.41896 124.02872 39929 ft 497 kts 329°
2026-04-20 16:41 9.47896 123.99382 39927 ft 497 kts 329°
2026-04-20 16:41 9.53896 123.95908 39931 ft 497 kts 330°
2026-04-20 16:42 9.59894 123.92440 39930 ft 496 kts 330°
2026-04-20 16:42 9.65838 123.88995 39930 ft 495 kts 329°
2026-04-20 16:43 9.71801 123.85531 39928 ft 494 kts 329°
2026-04-20 16:43 9.76996 123.82509 39928 ft 493 kts 329°
2026-04-20 16:44 9.82909 123.79070 39927 ft 493 kts 329°
2026-04-20 16:44 9.88855 123.75609 39933 ft 493 kts 329°
2026-04-20 16:45 9.94690 123.72211 39934 ft 493 kts 329°
2026-04-20 16:45 10.00626 123.68748 39934 ft 492 kts 329°
2026-04-20 16:46 10.06567 123.65280 39935 ft 492 kts 329°
2026-04-20 16:46 10.12501 123.61815 39937 ft 492 kts 329°
2026-04-20 16:47 10.18398 123.58371 39937 ft 493 kts 329°
2026-04-20 16:47 10.24338 123.54901 39940 ft 493 kts 329°
2026-04-20 16:48 10.30286 123.51427 39942 ft 493 kts 329°
2026-04-20 16:48 10.36231 123.47960 39947 ft 493 kts 329°
2026-04-20 16:49 10.42181 123.44486 39954 ft 493 kts 329°
2026-04-20 16:49 10.48090 123.41034 39951 ft 493 kts 328°
2026-04-20 16:50 10.54043 123.37557 39954 ft 494 kts 328°
2026-04-20 16:50 10.59991 123.34080 39950 ft 493 kts 328°
2026-04-20 16:51 10.65948 123.30603 39953 ft 493 kts 328°
2026-04-20 16:51 10.71839 123.27163 39945 ft 493 kts 328°
2026-04-20 16:52 10.77743 123.23706 39941 ft 493 kts 328°
2026-04-20 16:52 10.83686 123.20223 39940 ft 493 kts 328°
2026-04-20 16:53 10.89619 123.16738 39943 ft 492 kts 328°
2026-04-20 16:53 10.95513 123.13277 39938 ft 492 kts 328°
2026-04-20 16:54 11.01442 123.09796 39942 ft 492 kts 328°
2026-04-20 16:54 11.07372 123.06314 39941 ft 492 kts 328°
2026-04-20 16:55 11.13290 123.02838 39940 ft 491 kts 328°
2026-04-20 16:55 11.19212 122.99358 39935 ft 491 kts 328°
2026-04-20 16:56 11.25097 122.95898 39947 ft 491 kts 328°
2026-04-20 16:56 11.31008 122.92420 39944 ft 491 kts 328°
2026-04-20 16:57 11.36924 122.88940 39936 ft 491 kts 328°
2026-04-20 16:57 11.42840 122.85455 39936 ft 491 kts 328°
2026-04-20 16:58 11.48747 122.81974 39943 ft 491 kts 328°
2026-04-20 16:58 11.54618 122.78512 39945 ft 490 kts 328°
2026-04-20 16:59 11.60523 122.75030 39938 ft 490 kts 328°
2026-04-20 16:59 11.66275 122.71322 39937 ft 489 kts 324°
2026-04-20 17:00 11.74737 122.65502 39937 ft 489 kts 324°
2026-04-20 17:01 11.80361 122.61672 39938 ft 489 kts 324°
2026-04-20 17:01 11.86037 122.57841 39944 ft 489 kts 324°
2026-04-20 17:02 11.91717 122.54015 39947 ft 489 kts 324°
2026-04-20 17:02 11.97397 122.50185 39936 ft 489 kts 324°
2026-04-20 17:03 12.03031 122.46384 39931 ft 489 kts 324°
2026-04-20 17:03 12.08709 122.42549 39939 ft 489 kts 324°
2026-04-20 17:04 12.14385 122.38713 39934 ft 489 kts 324°
2026-04-20 17:04 12.19990 122.34925 39936 ft 489 kts 324°
2026-04-20 17:05 12.25629 122.31112 39930 ft 489 kts 324°
2026-04-20 17:05 12.31299 122.27274 39930 ft 489 kts 324°
2026-04-20 17:06 12.36969 122.23436 39936 ft 489 kts 324°
2026-04-20 17:06 12.42589 122.19544 39940 ft 488 kts 323°
2026-04-20 17:07 12.48202 122.15620 39924 ft 488 kts 323°
2026-04-20 17:07 12.53774 122.11739 39944 ft 488 kts 323°
2026-04-20 17:08 12.59393 122.07830 39925 ft 488 kts 323°
2026-04-20 17:08 12.65001 122.03929 39942 ft 488 kts 323°
2026-04-20 17:09 12.70613 122.00024 39755 ft 487 kts 323°
2026-04-20 17:09 12.73413 121.98077 39289 ft 484 kts 323°
2026-04-20 17:09 12.76158 121.96166 38692 ft 484 kts 323°
2026-04-20 17:09 12.78942 121.94226 37973 ft 485 kts 323°
2026-04-20 17:10 12.81739 121.92275 37299 ft 485 kts 323°
2026-04-20 17:10 12.84524 121.90333 36625 ft 485 kts 323°
2026-04-20 17:10 12.87318 121.88384 35953 ft 486 kts 323°
2026-04-20 17:10 12.90120 121.86429 35250 ft 488 kts 323°
2026-04-20 17:11 12.92933 121.84466 34488 ft 492 kts 323°
2026-04-20 17:11 12.95772 121.82481 33636 ft 497 kts 323°
2026-04-20 17:11 12.98638 121.80470 32777 ft 501 kts 323°
2026-04-20 17:11 13.01464 121.78489 32207 ft 497 kts 323°
2026-04-20 17:12 13.04316 121.76493 31624 ft 494 kts 323°
2026-04-20 17:12 13.07147 121.74513 31030 ft 492 kts 323°
2026-04-20 17:12 13.09969 121.72540 30428 ft 490 kts 323°
2026-04-20 17:12 13.12785 121.70571 29816 ft 488 kts 323°
2026-04-20 17:13 13.15582 121.68615 29165 ft 485 kts 323°
2026-04-20 17:13 13.18356 121.66674 28570 ft 481 kts 323°
2026-04-20 17:13 13.21072 121.64773 28002 ft 477 kts 324°
2026-04-20 17:13 13.23797 121.62866 27427 ft 473 kts 324°
2026-04-20 17:14 13.26507 121.60970 26846 ft 469 kts 324°
2026-04-20 17:14 13.29194 121.59088 26269 ft 466 kts 324°
2026-04-20 17:14 13.31858 121.57222 25698 ft 463 kts 324°
2026-04-20 17:14 13.34512 121.55363 25115 ft 460 kts 324°
2026-04-20 17:15 13.37142 121.53520 24538 ft 457 kts 324°
2026-04-20 17:15 13.39761 121.51686 23959 ft 455 kts 325°
2026-04-20 17:15 13.42367 121.49860 23341 ft 452 kts 325°
2026-04-20 17:15 13.44957 121.48045 22815 ft 447 kts 325°
2026-04-20 17:16 13.47484 121.46275 22676 ft 431 kts 325°
2026-04-20 17:16 13.49885 121.44592 22561 ft 416 kts 325°
2026-04-20 17:16 13.52240 121.42941 22402 ft 404 kts 325°
2026-04-20 17:16 13.54523 121.41338 22221 ft 392 kts 325°
2026-04-20 17:17 13.56745 121.39778 22049 ft 382 kts 325°
2026-04-20 17:17 13.58906 121.38248 21767 ft 374 kts 324°
2026-04-20 17:17 13.61008 121.36690 21393 ft 370 kts 323°
2026-04-20 17:17 13.63079 121.35138 21003 ft 367 kts 323°
2026-04-20 17:18 13.65133 121.33600 20607 ft 364 kts 323°
2026-04-20 17:18 13.67148 121.32094 20240 ft 361 kts 323°
2026-04-20 17:18 13.69176 121.30580 19864 ft 359 kts 324°
2026-04-20 17:18 13.71165 121.29096 19232 ft 349 kts 324°
2026-04-20 17:19 13.73117 121.27640 18578 ft 341 kts 324°
2026-04-20 17:19 13.74991 121.26242 18176 ft 326 kts 324°
2026-04-20 17:19 13.76821 121.24876 17782 ft 324 kts 324°
2026-04-20 17:19 13.78635 121.23523 17417 ft 321 kts 324°
2026-04-20 17:20 13.80438 121.22177 17064 ft 318 kts 324°
2026-04-20 17:20 13.82197 121.20864 16719 ft 315 kts 324°
2026-04-20 17:20 13.83964 121.19546 16374 ft 313 kts 324°
2026-04-20 17:20 13.85719 121.18236 16034 ft 310 kts 324°
2026-04-20 17:21 13.87458 121.16937 15694 ft 308 kts 324°
2026-04-20 17:21 13.89187 121.15645 15353 ft 306 kts 324°
2026-04-20 17:21 13.90901 121.14365 15024 ft 304 kts 324°
2026-04-20 17:21 13.92604 121.13092 14695 ft 302 kts 325°
2026-04-20 17:22 13.94300 121.11826 14361 ft 300 kts 325°
2026-04-20 17:22 13.95952 121.10590 14040 ft 298 kts 325°
2026-04-20 17:22 13.97623 121.09340 13721 ft 295 kts 325°
2026-04-20 17:22 13.99281 121.08101 13365 ft 293 kts 325°
2026-04-20 17:23 14.00922 121.06877 13058 ft 291 kts 325°
2026-04-20 17:23 14.02566 121.05652 12727 ft 290 kts 325°
2026-04-20 17:23 14.04192 121.04433 12409 ft 289 kts 326°
2026-04-20 17:23 14.05817 121.03216 12111 ft 288 kts 326°
2026-04-20 17:24 14.07438 121.02002 11790 ft 287 kts 326°
2026-04-20 17:24 14.09051 121.00794 11485 ft 286 kts 326°
2026-04-20 17:24 14.10661 120.99588 11173 ft 285 kts 326°
2026-04-20 17:24 14.12229 120.98414 11003 ft 278 kts 326°
2026-04-20 17:25 14.13765 120.97262 10884 ft 268 kts 326°
2026-04-20 17:25 14.15258 120.96141 10650 ft 264 kts 327°
2026-04-20 17:25 14.16738 120.95037 10410 ft 261 kts 327°
2026-04-20 17:25 14.18257 120.94028 10150 ft 259 kts 331°
2026-04-20 17:26 14.19801 120.93086 9919 ft 258 kts 332°
2026-04-20 17:26 14.21350 120.92162 9807 ft 256 kts 332°
2026-04-20 17:26 14.22890 120.91249 9639 ft 255 kts 332°
2026-04-20 17:26 14.24401 120.90350 9390 ft 253 kts 332°
2026-04-20 17:27 14.25760 120.89200 9124 ft 256 kts 309°
2026-04-20 17:27 14.26410 120.87510 8868 ft 258 kts 275°
2026-04-20 17:27 14.26069 120.85723 8627 ft 255 kts 245°
2026-04-20 17:27 14.25239 120.84112 8367 ft 255 kts 239°
2026-04-20 17:28 14.24332 120.82543 8116 ft 254 kts 238°
2026-04-20 17:28 14.23430 120.80985 7862 ft 253 kts 238°
2026-04-20 17:28 14.22538 120.79430 7598 ft 252 kts 238°
2026-04-20 17:28 14.21873 120.77806 7336 ft 251 kts 259°
2026-04-20 17:29 14.22060 120.76056 7080 ft 247 kts 296°
2026-04-20 17:29 14.23151 120.74745 6833 ft 241 kts 326°
2026-04-20 17:29 14.24576 120.73846 6575 ft 240 kts 333°
2026-04-20 17:29 14.26037 120.73026 6328 ft 239 kts 333°
2026-04-20 17:30 14.27492 120.72210 6075 ft 238 kts 333°
2026-04-20 17:30 14.28941 120.71384 5819 ft 237 kts 333°
2026-04-20 17:30 14.30398 120.70604 5563 ft 235 kts 340°
2026-04-20 17:30 14.31957 120.70344 5344 ft 230 kts
2026-04-20 17:31 14.33411 120.70930 5125 ft 226 kts 39°
2026-04-20 17:31 14.34412 120.72146 4895 ft 223 kts 58°
2026-04-20 17:31 14.35187 120.73531 4695 ft 223 kts 62°
2026-04-20 17:31 14.35932 120.74934 4446 ft 222 kts 62°
2026-04-20 17:32 14.36677 120.76321 4214 ft 221 kts 62°
2026-04-20 17:32 14.37428 120.77697 3993 ft 220 kts 61°
2026-04-20 17:32 14.38178 120.79065 3775 ft 218 kts 61°
2026-04-20 17:32 14.38929 120.80418 3535 ft 218 kts 61°
2026-04-20 17:33 14.39697 120.81739 3305 ft 217 kts 60°
2026-04-20 17:33 14.40449 120.83071 3073 ft 215 kts 61°
2026-04-20 17:33 14.41195 120.84419 2832 ft 215 kts 62°
2026-04-20 17:33 14.41926 120.85745 2670 ft 209 kts 61°
2026-04-20 17:34 14.42623 120.87006 2612 ft 195 kts 61°
2026-04-20 17:34 14.43271 120.88178 2517 ft 182 kts 61°
2026-04-20 17:34 14.43872 120.89279 2374 ft 172 kts 62°
2026-04-20 17:34 14.44456 120.90343 2136 ft 168 kts 62°
2026-04-20 17:35 14.45025 120.91375 1926 ft 165 kts 62°
2026-04-20 17:35 14.45592 120.92403 1692 ft 165 kts 61°
2026-04-20 17:35 14.46153 120.93417 1478 ft 164 kts 61°
2026-04-20 17:35 14.46699 120.94402 1277 ft 154 kts 61°
2026-04-20 17:36 14.47217 120.95343 1070 ft 147 kts 61°
2026-04-20 17:36 14.47710 120.96240 929 ft 141 kts 61°
2026-04-20 17:36 14.48239 120.97203 1530 ft 173 kts 60°
2026-04-20 17:36 14.48849 120.98302 2524 ft 174 kts 60°
2026-04-20 17:37 14.49440 120.99364 3337 ft 172 kts 61°
2026-04-20 17:37 14.50062 121.00486 3815 ft 191 kts 61°
2026-04-20 17:37 14.50779 121.01779 3933 ft 226 kts 60°
2026-04-20 17:37 14.51595 121.03243 3970 ft 241 kts 60°
2026-04-20 17:38 14.52426 121.04728 3983 ft 242 kts 60°
2026-04-20 17:38 14.53268 121.06233 3990 ft 242 kts 60°
2026-04-20 17:38 14.54110 121.07740 3992 ft 242 kts 60°
2026-04-20 17:38 14.54945 121.09241 4093 ft 242 kts 60°
2026-04-20 17:39 14.55790 121.10764 4647 ft 247 kts 60°
2026-04-20 17:39 14.56757 121.12265 5383 ft 259 kts 49°
2026-04-20 17:39 14.58281 121.13307 6063 ft 272 kts 18°
2026-04-20 17:39 14.60147 121.13546 6909 ft 277 kts
2026-04-20 17:40 14.62080 121.13552 7831 ft 280 kts
2026-04-20 17:40 14.64039 121.13537 8778 ft 284 kts
2026-04-20 17:40 14.66031 121.13533 9527 ft 288 kts
2026-04-20 17:40 14.68047 121.13419 9896 ft 293 kts 350°
2026-04-20 17:41 14.69875 121.12484 9987 ft 300 kts 321°
2026-04-20 17:41 14.71067 121.10717 10003 ft 305 kts 291°
2026-04-20 17:41 14.71302 121.08554 9998 ft 307 kts 264°
2026-04-20 17:41 14.70955 121.06406 9993 ft 308 kts 260°
2026-04-20 17:42 14.70626 121.04223 10001 ft 308 kts 262°
2026-04-20 17:42 14.70412 121.02021 10001 ft 308 kts 265°
2026-04-20 17:42 14.70293 120.99824 9961 ft 303 kts 268°
2026-04-20 17:42 14.70233 120.97695 9840 ft 289 kts 269°
2026-04-20 17:43 14.70206 120.95697 9620 ft 269 kts 269°
2026-04-20 17:43 14.70195 120.93833 9398 ft 251 kts 270°
2026-04-20 17:43 14.70189 120.92087 9132 ft 237 kts 270°
2026-04-20 17:43 14.69898 120.90463 8671 ft 232 kts 243°
2026-04-20 17:44 14.68794 120.89290 8153 ft 225 kts 203°
2026-04-20 17:44 14.67321 120.89055 7726 ft 216 kts 173°
2026-04-20 17:44 14.65850 120.89256 7311 ft 212 kts 168°
2026-04-20 17:44 14.64400 120.89512 6875 ft 211 kts 168°
2026-04-20 17:45 14.62956 120.89769 6445 ft 210 kts 168°
2026-04-20 17:45 14.61523 120.90016 6011 ft 208 kts 168°
2026-04-20 17:45 14.60094 120.90252 5554 ft 207 kts 168°
2026-04-20 17:45 14.58685 120.90478 5188 ft 202 kts 168°
2026-04-20 17:46 14.57306 120.90699 4729 ft 201 kts 168°
2026-04-20 17:46 14.55944 120.90914 4223 ft 201 kts 168°
2026-04-20 17:46 14.54565 120.91128 3737 ft 200 kts 169°
2026-04-20 17:46 14.53188 120.91339 3287 ft 199 kts 168°
2026-04-20 17:47 14.51825 120.91546 2823 ft 197 kts 168°
2026-04-20 17:47 14.50491 120.91750 2569 ft 188 kts 168°
2026-04-20 17:47 14.49243 120.91938 2316 ft 177 kts 168°
2026-04-20 17:47 14.48047 120.92123 1937 ft 172 kts 168°
2026-04-20 17:48 14.46981 120.92535 1652 ft 163 kts 137°
2026-04-20 17:48 14.46607 120.93504 1578 ft 142 kts 85°
2026-04-20 17:48 14.46789 120.94470 1349 ft 136 kts 76°
2026-04-20 17:48 14.47196 120.95337 1120 ft 133 kts 57°
2026-04-20 17:49 14.47690 120.96135 924 ft 132 kts 61°
2026-04-20 17:49 14.48096 120.96991 736 ft 133 kts 63°
2026-04-20 17:49 14.48560 120.97813 582 ft 134 kts 59°
2026-04-20 17:49 14.49029 120.98640 419 ft 134 kts 60°
2026-04-20 17:50 14.49480 120.99462 260 ft 134 kts 61°
2026-04-20 17:50 14.49944 121.00292 104 ft 134 kts 60°
2026-04-20 17:50 14.50381 121.01082 69 ft 113 kts 60°
2026-04-20 17:50 14.50635 121.01541 65 ft 39 kts 60°
2026-04-20 17:51 14.50753 121.01755 65 ft 34 kts 60°
2026-04-20 17:51 14.50872 121.01969 65 ft 35 kts 59°
2026-04-20 17:51 14.50996 121.02187 68 ft 35 kts 52°
2026-04-20 17:51 14.51138 121.02299 71 ft 0 kts 18°
2026-04-20 17:52 14.51164 121.02306 73 ft 13 kts 10°
2026-04-20 17:52 14.51197 121.02270 67 ft 12 kts 276°
2026-04-20 17:52 14.51168 121.02214 70 ft 18 kts 239°
2026-04-20 17:52 14.51098 121.02089 69 ft 22 kts 240°
2026-04-20 17:53 14.51018 121.01945 68 ft 24 kts 240°
2026-04-20 17:53 14.50929 121.01786 65 ft 27 kts 240°
2026-04-20 17:53 14.50833 121.01612 68 ft 29 kts 240°
2026-04-20 17:53 14.50741 121.01446 70 ft 23 kts 240°
2026-04-20 17:54 14.50695 121.01346 70 ft 8 kts 268°
2026-04-20 17:54 14.50716 121.01314 65 ft 5 kts 334°
2026-04-20 17:54 14.50750 121.01325 73 ft 6 kts 43°
2026-04-20 17:54 14.50794 121.01396 64 ft 20 kts 60°
2026-04-20 17:55 14.50859 121.01514 64 ft 15 kts 60°
2026-04-20 17:55 14.50926 121.01601 64 ft 13 kts 22°
2026-04-20 17:55 14.50976 121.01581 68 ft 8 kts 317°
2026-04-20 17:55 14.51024 121.01532 64 ft 12 kts 316°
2026-04-20 17:56 14.51080 121.01472 67 ft 5 kts 302°
2026-04-20 17:56 14.51076 121.01463 66 ft 5 kts 247°
2026-04-20 17:56 14.51042 121.01425 65 ft 7 kts 222°
2026-04-20 17:56 14.51036 121.01419 66 ft 2 kts 226°
2026-04-20 17:57 14.51029 121.01411 65 ft 0 kts 226°